Regional Weather Roundup
Issued by NWS

Home | Current Version | Previous Version | Graphics & Text | Print | Product List | Glossary On
Versions: 1 2 3 4 5 6 7 8 9 10 11 12 13 14 15 16 17 18 19 20 21 22 23 24 25 26 27 28 29 30 31 32 33 34 35 36 37 38 39 40 41 42 43 44 45 46 47 48 49 50
000
ASUS43 KLOT 030808
RWRIL

ILLINOIS REGIONAL WEATHER ROUNDUP
NATIONAL WEATHER SERVICE CHICAGO/ROMEOVILLE IL
300 AM CDT FRI JUL 03 2015

NOTE: "FAIR" INDICATES FEW OR NO CLOUDS BELOW 12,000 FEET WITH NO
SIGNIFICANT WEATHER AND/OR OBSTRUCTIONS TO VISIBILITY.

* THESE STATIONS ARE NOT UNDER NWS QUALITY CONTROL. THEY ALSO MAY NOT
  REPORT WEATHER SUCH AS PRECIPITATION OR FOG.

ILZ001-002-007-009-015-016-024-030900-
NORTHWEST ILLINOIS

CITY           SKY/WX    TMP DP  RH WIND       PRES   REMARKS
MOLINE         CLOUDY    61  56  83 E5        29.96F
STERLING*      CLOUDY    57  54  88 E6        29.98S
SAVANNA*       CLOUDY    58  54  85 E5        29.98F
$$

ILZ003-004-008-010-011-017-018-030900-
NORTH CENTRAL ILLINOIS

CITY           SKY/WX    TMP DP  RH WIND       PRES   REMARKS
ROCKFORD       CLOUDY    57  49  74 CALM      29.99F
FREEPORT*      CLOUDY    54  52  94 CALM      30.00F
ROCHELLE*      CLOUDY    55  51  84 E3        29.99S
DE KALB*       CLOUDY    52  48  84 NE5       29.99S
PERU*          CLOUDY    58  53  84 NE7       29.97F
$$

ILZ005-006-012>014-019>023-030900-
NORTHEAST ILLINOIS

CITY           SKY/WX    TMP DP  RH WIND       PRES   REMARKS
CHICAGO-OHARE  CLOUDY    56  49  77 N3        29.97F
CHICAGO-MIDWAY CLOUDY    62  52  69 N6        29.96F
AURORA         CLOUDY    56  48  74 NE6       29.97F
LANSING*       MOCLDY    60  56  85 NE3       29.96F
JOLIET*        CLOUDY    60  52  75 NE5       29.97S
WAUKEGAN       PTCLDY    53  49  86 N3        29.97F
DUPAGE AIRPORT MOCLDY    53  49  86 N5        29.96F
KANKAKEE*      CLOUDY    59  57  93 NE6       29.96S
WHEELING       PTCLDY    54  48  80 CALM      29.99S
MORRIS*        CLOUDY    57  52  82 CALM      29.94S
ROMEOVILLE*    CLOUDY    57  50  77 NE6       29.97S
NORTHERLY ISL    N/A     61  56  83 N5          N/A
$$

LMZ740>746-030900-
SOUTHERN LAKE MICHIGAN

STATION/POSITION SKY/WX   TEMP    WIND        PRES    VSBY  WAVE
                          AIR SEA DIR/SP/G                  HT/PER
                          (F)     (DEG/KT/KT) (MB)    (MI)  (FT/S)
HARRISON CRIB              60      20/  4/  6   N/A
BURNHAM HARBOR             61      40/  5/  6   N/A
CALUMET HARBOR             61     360/  4/  5   N/A
BURNS HARBOR               61      70/  9/ 10 1015.6F
MICHIGAN CITY              57      40/  7/  8   N/A
MICHIGAN CITY 6N           60 62  100/  8/ 10   N/A           2/ 5
ST. JOSEPH                 61 61                N/A           2/ 4
$$

ILZ025>027-034>036-040-047-049-050-058-095>099-030900-
WEST-CENTRAL ILLINOIS

CITY           SKY/WX    TMP DP  RH WIND       PRES   REMARKS
QUINCY         CLOUDY    64  60  87 NE7       29.93F
GALESBURG*     CLOUDY    61  57  87 N3        29.95F
MACOMB*        CLOUDY    62  60  95 CALM      29.96F
JACKSONVILLE*  MOCLDY    65  62  89 N3        29.92F
PITTSFIELD*    CLOUDY    64  61  88 N5        29.93F
$$

ILZ028>032-037-038-041>044-048-051>054-059>061-030900-
CENTRAL ILLINOIS

CITY           SKY/WX    TMP DP  RH WIND       PRES   REMARKS
PONTIAC        CLOUDY    60  57  90 NE6       29.95F
BLOOMINGTON    CLOUDY    60  58  93 NE10      29.94F
DECATUR        CLOUDY    63  60  90 NE8       29.90F
PEORIA         CLOUDY    65  56  72 NE9       29.94F
LACON*         CLOUDY    59  54  83 CALM      29.96S
LINCOLN*       CLOUDY    64  58  83 NE6       29.93F
SPRINGFIELD    CLOUDY    66  60  81 N7        29.92S
TAYLORVILLE    CLOUDY    61  61 100 N5        29.90F
$$

ILZ033-039-045-046-055>057-062-063-030900-
EAST-CENTRAL ILLINOIS

CITY           SKY/WX    TMP DP  RH WIND       PRES   REMARKS
CHAMPAIGN      CLOUDY    65  59  81 NE9       29.91F
DANVILLE*      CLOUDY    63  60  92 NE6       29.89F
RANTOUL*       CLOUDY    64  60  90 NE10      29.92F
MATTOON        MOCLDY    65  62  90 NE8       29.87F
PARIS*         CLOUDY    67  63  89 NE6       29.89F
$$

ILZ079-100>102-030900-
SOUTHWEST ILLINOIS

CITY           SKY/WX    TMP DP  RH WIND       PRES   REMARKS
ALTON          MOCLDY    65  65 100 NW3       29.89F
BELLEVILLE     MOCLDY    67  65  93 VRB3      29.86F
CAHOKIA*       CLOUDY    69  63  81 NW5       29.89S
SPARTA*        CLOUDY    68  64  88 NW3       29.88S
$$

ILZ064>066-069>071-074>076-080>082-084>086-088>090-092>094-030900-
SOUTH-CENTRAL ILLINOIS

CITY           SKY/WX    TMP DP  RH WIND       PRES   REMARKS
CARBONDALE     CLOUDY    70  67  90 MISG      29.86S
CAIRO*         CLOUDY    72  70  93 W5        29.85R
EFFINGHAM*     MOCLDY    68  63  83 CALM      29.88S
MARION         CLOUDY    72  70  94 CALM      29.85F
MT. VERNON     MOCLDY    66  63  88 N3        29.86F
CENTRALIA*     CLOUDY    67  64  89 NW3       29.87S
SALEM*         CLOUDY    69  65  88 CALM      29.87F
METROPOLIS*    CLOUDY    72  72 100 NW5       29.84F
$$

ILZ067-068-072-073-078-083-087-091-030900-
SOUTHEAST ILLINOIS

CITY           SKY/WX    TMP DP  RH WIND       PRES   REMARKS
LAWRENCEVILLE  MOCLDY    70  68  93 N5        29.84F FOG
FLORA*         MOCLDY    68  66  93 NW3       29.86S
FAIRFIELD*     MOCLDY    69  67  94 N3        29.84S
HARRISBURG*    PTCLDY    71  70  99 CALM      29.85F
ROBINSON*      MOCLDY    69  66  92 NE5       29.86F
CARMI*         CLOUDY    72  66  81 CALM      29.83F HAZE
$$

ABBREVIATIONS USED IN REMARKS
   TC - TEMPERATURE IN CELSIUS
  WCI - WIND CHILL INDEX
   HX - HEAT INDEX
  VSB - VISIBILITY
$$




USA.gov is the U.S. government's official web portal to all federal, state and local government web resources and services.